Memphis, TN

1:59 AM CST on January 21, 2018 (GMT -0600)
Memphis International

Weather History for KMEM - September, 2012

Change the Weather History Date:

Tuesday, September 25, 2012

  Actual Average Record
Temperature  
Mean Temperature 77 °F 72 °F  
Max Temperature 88 °F 82 °F 98 °F (2016)
Min Temperature 66 °F 62 °F 43 °F (1965)
Degree Days  
Heating Degree Days 0 1  
Month to date heating degree days 1 5  
Since 1 July heating degree days 1 5  
Cooling Degree Days 12 7  
Month to date cooling degree days 271 282  
Year to date cooling degree days 2508 2117  
Growing Degree Days 27 (Base 50)    
Moisture  
Dew Point 63 °F    
Average Humidity 63    
Maximum Humidity 79    
Minimum Humidity 46    
Precipitation  
Precipitation 0.00 in 0.12 in 1.88 in (1872)
Month to date precipitation 6.42 2.49  
Year to date precipitation 26.02 37.87  
Snow  
Snow 0.00 in 0.00 in 0.00 in (2002)
Month to date snowfall 0.0 0.0  
Since 1 July snowfall 0.0 0.0  
Since 1 September snowfall 0.0 0.0  
Snow Depth 0.00 in    
Sea Level Pressure  
Sea Level Pressure 30.02 in    
Wind  
Wind Speed 10 mph (South)    
Max Wind Speed 18 mph    
Max Gust Speed 32 mph    
Visibility 10 miles    
Events      
T = Trace of Precipitation, MM = Missing Value Source: NWS Daily Summary

Daily Weather History Graph

Daily Weather History Graph

Search for Another Location

Airport or City:

Trip Planner

Search our weather history database for the weather conditions in past years. The results will help you decide how hot, cold, wet, or windy it might be!

Date:

Astronomy

Sep. 25, 2012 Rise Set
Actual Time 6:50 AM CDT 6:51 PM CDT
Civil Twilight 6:25 AM CDT 7:16 PM CDT
Nautical Twilight 5:55 AM CDT 7:46 PM CDT
Astronomical Twilight 5:26 AM CDT 8:15 PM CDT
Moon 4:08 PM CDT (9/25) 2:21 AM CDT (9/25)
Length of Visible Light 12h 51m
Length of Day
12h 01m
Waxing Gibbous, 80% of the Moon is Illuminated
Sep 25
Waxing Gibbous
Sep 29
Full
Oct 8
Last Quarter
Oct 15
New
Oct 21
First Quarter

Hourly Weather History & Observations

Time (CDT) Temp. Heat Index Dew Point Humidity Pressure Visibility Wind Dir Wind Speed Gust Speed Precip Events Conditions
12:54 AM 66.9 °F - 52.0 °F 59% 30.04 in 10.0 mi South 9.2 mph - N/A   Scattered Clouds
1:54 AM 66.9 °F - 53.1 °F 61% 30.03 in 10.0 mi South 10.4 mph - N/A   Scattered Clouds
2:54 AM 68.0 °F - 54.0 °F 61% 30.02 in 10.0 mi South 9.2 mph - N/A   Mostly Cloudy
3:54 AM 69.1 °F - 55.9 °F 63% 30.02 in 10.0 mi SSW 11.5 mph - N/A   Mostly Cloudy
4:54 AM 69.1 °F - 57.0 °F 65% 30.02 in 10.0 mi South 11.5 mph - N/A   Overcast
5:54 AM 69.1 °F - 57.9 °F 68% 30.02 in 10.0 mi South 6.9 mph - N/A   Mostly Cloudy
6:54 AM 68.0 °F - 60.1 °F 76% 30.03 in 10.0 mi South 8.1 mph - N/A   Overcast
7:54 AM 71.1 °F - 62.1 °F 73% 30.04 in 10.0 mi South 9.2 mph - N/A   Overcast
8:54 AM 73.0 °F - 64.0 °F 73% 30.05 in 10.0 mi SSW 10.4 mph - N/A   Overcast
9:54 AM 75.0 °F - 64.9 °F 71% 30.07 in 10.0 mi South 9.2 mph - N/A   Overcast
10:54 AM 79.0 °F - 68.0 °F 69% 30.07 in 8.0 mi SSW 11.5 mph - N/A   Mostly Cloudy
11:54 AM 80.1 °F 82.3 °F 66.9 °F 64% 30.07 in 10.0 mi SSW 8.1 mph - N/A   Overcast
12:54 PM 82.0 °F 84.9 °F 68.0 °F 62% 30.04 in 10.0 mi SSW 8.1 mph - N/A   Mostly Cloudy
1:54 PM 84.2 °F 87.3 °F 68.0 °F 58% 30.03 in 10.0 mi SW 9.2 mph 21.9 mph N/A   Mostly Cloudy
2:54 PM 87.1 °F 89.9 °F 66.9 °F 51% 30.00 in 10.0 mi SSW 16.1 mph 20.7 mph N/A   Scattered Clouds
3:54 PM 86.0 °F 89.4 °F 68.0 °F 55% 29.99 in 10.0 mi South 11.5 mph - N/A   Scattered Clouds
4:54 PM 88.0 °F 89.3 °F 64.0 °F 45% 29.98 in 10.0 mi SSW 10.4 mph - N/A   Scattered Clouds
5:54 PM 86.0 °F 87.3 °F 64.0 °F 48% 29.98 in 10.0 mi SSW 8.1 mph - N/A   Mostly Cloudy
6:54 PM 84.0 °F 85.8 °F 64.9 °F 53% 29.98 in 10.0 mi South 5.8 mph - N/A   Mostly Cloudy
7:54 PM 81.0 °F 83.8 °F 68.0 °F 65% 29.98 in 10.0 mi SSE 11.5 mph - N/A   Partly Cloudy
8:54 PM 80.1 °F 82.9 °F 69.1 °F 69% 29.98 in 10.0 mi South 16.1 mph - N/A   Clear
9:54 PM 78.1 °F - 68.0 °F 71% 29.99 in 10.0 mi South 15.0 mph - N/A   Clear
10:54 PM 77.0 °F - 68.0 °F 74% 30.02 in 9.0 mi South 11.5 mph - N/A   Clear
11:54 PM 75.2 °F - 68.0 °F 78% 30.05 in 9.0 mi South 9.2 mph - N/A   Clear